Search flights

Indianapolis Intl Airport, Indianapolis (KIND)

Airport Weather & NOTAM's

METAR for:KIND (Indianapolis Intl, IN, US)
Text:KIND 140454Z 22007KT 10SM FEW250 24/22 A3014 RMK AO2 SLP198 T02390217 403220211
Conditions at:0454 UTC 14 Jul 2024
Temperature: 23.9°C ( 75°F)
Dewpoint: 21.7°C ( 71°F) [RH = 88%]
Pressure (altimeter):30.14 inches Hg (1020.7 mb) [Sea level pressure: 1019.8 mb]
Winds:from the SW (220 degrees) at 8 MPH (7 knots; 3.6 m/s)
Visibility:10 or more sm (16+ km)
Ceiling:at least 12,000 feet AGL
Clouds:few clouds at 25000 feet AGL
TAF for:KIND (Indianapolis Intl, IN, US) issued at 0217 UTC 14 Jul 2024
Text:KIND 140217Z 1402/1506 18006KT P6SM SCT050
Forecast period:0200 to 0400 UTC 14 July 2024
Forecast type:FROM: standard forecast or significant change
Winds:from the S (180 degrees) at 7 MPH (6 knots; 3.1 m/s)
Visibility:6 or more sm (10+ km)
Ceiling:at least 12,000 feet AGL
Clouds:scattered clouds at 5000 feet AGL
Text:FM140400 20005KT P6SM SCT250
Forecast period:0400 to 1400 UTC 14 July 2024
Forecast type:FROM: standard forecast or significant change
Winds:from the SSW (200 degrees) at 6 MPH (5 knots; 2.6 m/s)
Visibility:6 or more sm (10+ km)
Ceiling:at least 12,000 feet AGL
Clouds:scattered clouds at 25000 feet AGL
Text:FM141400 23012KT P6SM SCT060 BKN150
Forecast period:1400 UTC 14 July 2024 to 0600 UTC 15 July 2024
Forecast type:FROM: standard forecast or significant change
Winds:from the SW (230 degrees) at 14 MPH (12 knots; 6.2 m/s)
Visibility:6 or more sm (10+ km)
Ceiling:15000 feet AGL
Clouds:scattered clouds at 6000 feet AGL, broken clouds at 15000 feet AGL

Live Departures & Arrivals

There are currently no arrivals or departures for this airport.

Departures History (last 12 months)

Flight No. Dest. Aircraft Date
FX 397 EDDK FEDEX-DC10... 2024-07-09 00:00:00
FX 360 KMEM IF-LIVERY-... 2024-06-28 00:00:00
FX 374 KPHL FEDEX-B77F 2024-06-26 00:00:00
FX395 KLAX FEDEX-B77F 2024-06-24 00:00:00
FX 1267 KMSY IF-LIVERY-... 2024-06-19 00:00:00
FX 361 KMKE FEDEX-MD11... 2024-06-18 00:00:00
FX389 KIAD FEDEX-MD11... 2024-06-17 00:00:00
FX 960 KSTL IF-LIVERY-... 2024-06-18 00:00:00
FX 340 KDEN FEDEX-MD11... 2024-06-10 00:00:00
FX 398 KMIA FEDEX-MD11... 2024-06-10 00:00:00
CONNECT 03 CYMX FEDEX-DC10... 2024-06-08 00:00:00
CONNECT03 CYMX FEDEX-DC10... 2024-06-08 00:00:00
CONNECT03 CYMX FEDEX-DC10... 2024-06-07 00:00:00
FX 360 KMEM FEDEX-MD11... 2024-06-04 00:00:00
FX 367 KJFK FEDEX-B77F 2024-05-16 00:00:00
FX 349 KATL FEDEX-B77F 2024-05-13 00:00:00
FX 395 KLAX FEDEX-B77F 2024-05-06 00:00:00
FX 400 KGSO FEDEX-MD11... 2024-05-03 00:00:00
FX 344 KCLT FEDEX-B77F 2024-05-01 00:00:00
CONNECT 104 CYYZ FEDEX-B77F 2024-05-01 00:00:00
CONNECT 104 CYYZ FEDEX-B77F 2024-04-30 00:00:00
CONNECT104 CYYZ FEDEX-B77F 2024-04-29 00:00:00
CONNECT104 CYYZ FEDEX-B77F 2024-04-29 00:00:00
CONNECT 104 CYYZ FEDEX-B77F 2024-04-29 00:00:00
CONNECT 104 CYYZ FEDEX-B77F 2024-04-29 00:00:00
FX 403 KLAS FEDEX-MD11... 2024-04-25 00:00:00
FX 389 KIAD FEDEX-B77F 2024-04-24 00:00:00
FX 360 KMEM FEDEX-B77F 2024-04-20 00:00:00
FX 1126 KORF IF-LIVERY-... 2024-04-18 00:00:00
FX 338 KDFW FEDEX-B77F 2024-04-17 00:00:00
FX 349 KATL FEDEX-B77F 2024-04-15 00:00:00
FX393 KORD IF-LIVERY-... 2024-04-12 00:00:00
FX393 KORD FEDEX-B77F 2024-04-12 00:00:00
FX 1075 KAFW IF-LIVERY-... 2024-04-05 00:00:00
FX 393 KORD FEDEX-B77F 2024-04-05 00:00:00
FX 398 KMIA FEDEX-MD11... 2024-04-04 00:00:00
FX367 KJFK FEDEX-MD11... 2024-03-31 00:00:00
FX360 KMEM FEDEX-B77F 2024-03-31 00:00:00
FX 389 KIAD FEDEX-B77F 2024-03-31 00:00:00
MTN8396 KSTL FEDEX-C208 2024-03-29 00:00:00
FX 349 KATL FEDEX-B77F 2024-03-27 00:00:00
FX 1267 KMSY IF-LIVERY-... 2024-03-23 00:00:00
FX 378 KPDX GENERIC-B7... 2024-03-16 00:00:00
FX 340 KDEN FEDEX-DC10... 2024-03-15 00:00:00
FX 351 KGSP FEDEX-B77F 2024-03-09 00:00:00
FX1281 VOBL FEDEX-B77F 2024-03-06 00:00:00
FX 360 KMEM FEDEX-MD11... 2024-03-04 00:00:00
FX 388 CYYZ FEDEX-B77F 2024-03-03 00:00:00
CONNECT 3121 CYMX FEDEX-B77F 2024-02-23 00:00:00
FX 368 KJFK FEDEX-B77F 2024-02-22 00:00:00
CONNECT 3121 CYMX FEDEX-B77F 2024-02-22 00:00:00
CONNECT 3121 CYMX FEDEX-B77F 2024-02-22 00:00:00
CONNECT 3121 CYMX FEDEX-B77F 2024-02-21 00:00:00
CONNECT 3121 CYMX FEDEX-B77F 2024-02-19 00:00:00
CONNECT 3121 CYMX FEDEX-B77F 2024-02-18 00:00:00
FX 339 KDFW FEDEX-MD11... 2024-02-08 00:00:00
FX 1233 KSMF IF-LIVERY-... 2024-02-08 00:00:00
FX374 LFPG FEDEX-B77F 2024-02-05 00:00:00
FX 361 KMEM FEDEX-B77F 2024-02-05 00:00:00
FX 999 KDTW FEDEX-B77F 2024-01-31 00:00:00
FX 350 KATL FEDEX-B77F 2024-01-27 00:00:00
FX 392 KBWI FEDEX-B77F 2024-01-22 00:00:00
FX 345 KCLT FEDEX-B77F 2024-01-17 00:00:00
FX389 CYYZ FEDEX-DC10... 2024-01-16 00:00:00
FX 398 EDDK FEDEX-B77F 2024-01-14 00:00:00
FX 374 LFPG B77F 2024-01-11 00:00:00
FX 374 LFPG B77F 2024-01-08 00:00:00
FX368 KJFK B77F 2024-01-07 00:00:00
FX366 CYMX MD11F 2024-01-08 00:00:00
FX 1165 KORF B752 2024-01-05 00:00:00
FX339 KDFW MD11F 2024-01-05 00:00:00
FX 361 KMEM MD11F 2024-01-04 00:00:00
FX 402 KTPA B77F 2024-01-03 00:00:00
FX361 KMEM B77F 2024-01-01 00:00:00
FX 377 KPHX B77F 2024-01-01 00:00:00
FX 368 KJFK B77F 2024-01-01 00:00:00
FX 341 KDEN B77F 2024-01-02 00:00:00
FX 368 KJFK B77F 2023-12-31 00:00:00
FX399 KMIA MD11F 2023-12-28 00:00:00
FX 370 KEWR B77F 2023-12-25 00:00:00
FX392 KBWI B77F 2023-12-23 00:00:00
FX 396 KLAX B77F 2023-12-16 00:00:00
FX 361 KMEM B77F 2023-12-14 00:00:00
FX 371 KOAK MD11F 2023-12-03 00:00:00
FX 368 KJFK B77F 2023-11-30 00:00:00
FX 350 KATL B77F 2023-11-24 00:00:00
FX 368 KJFK B77F 2023-11-24 00:00:00
FX400 RJBB B77F 2023-11-19 00:00:00
FX 394 KORD MD11F 2023-11-15 00:00:00
FX400 RJBB B77F 2023-11-11 00:00:00
FX 396 KLAX MD11F 2023-11-09 00:00:00
MTN 8385 KCID C208 2023-11-05 00:00:00
FX CHALLENGE #4 KAFW MD11F 2023-11-05 00:00:00
FX 1174 KSWF B752 2023-11-05 00:00:00
FDX-CTR KORD B77F 2023-11-04 00:00:00
FX396 KLAX B77F 2023-11-01 00:00:00
FXCHALLEN KJFK MD11F 2023-10-30 00:00:00
FXCHALLEN KJFK MD11F 2023-10-30 00:00:00
FX CHALLENGE (3) KJFK MD11F 2023-10-30 00:00:00
FX CHALLENGE (3) KJFK MD11F 2023-10-30 00:00:00
FX CHALLENGE (3) KJFK MD11F 2023-10-30 00:00:00
FX349 PANC MD11F 2023-10-20 00:00:00
FX339 KDFW MD11F 2023-10-20 00:00:00
FX999 KDTW B763 2023-10-10 00:00:00
FX 374 LFPG B77F 2023-10-08 00:00:00
FX 375 KPHL B77F 2023-10-05 00:00:00
FX 377 KPHX B77F 2023-10-02 00:00:00
FX ROTW KCMH B763 2023-09-24 00:00:00
FX CTR KSAN B77F 2023-09-24 00:00:00
FX ATC KIND IFATC 2023-09-22 00:00:00
FX 360 EGSS B77F 2023-09-17 00:00:00
FX360 EGSS B77F 2023-09-17 00:00:00
MTN 8394 KPIT C208 2023-09-09 00:00:00
FX 1230 KMCO B752 2023-09-05 00:00:00
FX 350 KATL B77F 2023-08-29 00:00:00
MTN 8390 KBNA C208 2023-08-26 00:00:00
FX ATC KIND IFATC 2023-08-26 00:00:00
FX 360 EGSS B77F 2023-08-26 00:00:00
FX389 CYYZ B77F 2023-08-24 00:00:00
FX 360 EGSS MD11F 2023-08-16 00:00:00
FX 1230 KMCO B752 2023-08-17 00:00:00
FX 370 KEWR B77F 2023-08-13 00:00:00
FX 361 KMEM B752 2023-08-08 00:00:00
FX400 RJBB B77F 2023-08-06 00:00:00
FX 396 KLAX B77F 2023-08-02 00:00:00
FX 350 KATL B77F 2023-07-31 00:00:00
FX ROTW EGSS B77F 2023-07-27 00:00:00
FX ROTW EGSS B77F 2023-07-27 00:00:00
FX 396 KLAX B77F 2023-07-28 00:00:00
FX ROTW EGSS B77F 2023-07-26 00:00:00
FX CTR MSLP MD11F 2023-07-24 00:00:00
MTN 8533 KRST C208 2023-07-24 00:00:00
FX ROTW KRST C208 2023-07-23 00:00:00
FX 402 KTPA B752 2023-07-16 00:00:00

Arrivals History (last 12 months)

Flight No. Origin Aircraft Date
FX 1329 KELP FEDEX-B77F 2024-07-09 00:00:00
FX390 KIAD IF-LIVERY-... 2024-07-08 00:00:00
FX 339 KDFW FEDEX-B77F 2024-06-29 00:00:00
FX 232 EDDK FEDEX-B77F 2024-06-28 00:00:00
FX362 KMKE FEDEX-B77F 2024-06-24 00:00:00
MTN 8397 KSTL FEDEX-C208 2024-06-18 00:00:00
FX 362 KMKE FEDEX-DC10... 2024-06-19 00:00:00
FX345 KCLT FEDEX-MD11... 2024-06-17 00:00:00
FX 177 KMEM FEDEX-MD11... 2024-06-17 00:00:00
FX 368 KJFK FEDEX-MD11... 2024-06-13 00:00:00
FX 402 KTPA IF-LIVERY-... 2024-06-08 00:00:00
FX 1040 KFLL IF-LIVERY-... 2024-06-04 00:00:00
FX1040 KFLL IF-LIVERY-... 2024-05-29 00:00:00
FX 368 KJFK FEDEX-MD11... 2024-05-24 00:00:00
FX362 KMKE FEDEX-MD11... 2024-05-05 00:00:00
FX 368 KJFK FEDEX-B77F 2024-05-03 00:00:00
FX 354 KMDT FEDEX-MD11... 2024-05-03 00:00:00
FX 368 KJFK FEDEX-MD11... 2024-04-28 00:00:00
FX 368 KJFK FEDEX-MD11... 2024-04-20 00:00:00
FX 368 KJFK FEDEX-MD11... 2024-04-20 00:00:00
FX 368 KJFK FEDEX-MD11... 2024-04-20 00:00:00
FX 362 KMKE FEDEX-DC10... 2024-04-20 00:00:00
FX 339 KDFW FEDEX-MD11... 2024-04-16 00:00:00
FX 377 KPHX FEDEX-B77F 2024-04-15 00:00:00
FX 350 KATL FEDEX-B77F 2024-04-11 00:00:00
FX 232 EDDK FEDEX-B77F 2024-04-06 00:00:00
FX 252 CYYZ FEDEX-B77F 2024-04-04 00:00:00
FXCTR CYYZ FEDEX-DC10... 2024-04-04 00:00:00
FX 252 CYYZ FEDEX-B77F 2024-04-04 00:00:00
FX 252 CYYZ FEDEX-B77F 2024-04-04 00:00:00
FX 252 CYYZ FEDEX-B77F 2024-04-04 00:00:00
FX 252 CYYZ FEDEX-B77F 2024-04-04 00:00:00
CONNECT10 CYYZ FEDEX-B77F 2024-04-03 00:00:00
CONNECT10 CYYZ FEDEX-B77F 2024-04-02 00:00:00
CONNECT 1073 CYYZ FEDEX-B77F 2024-04-01 00:00:00
CONNECT 1073 CYYZ FEDEX-B77F 2024-04-02 00:00:00
CONNECT 1073 CYYZ FEDEX-B77F 2024-04-01 00:00:00
FX 308 LFPG FEDEX-B77F 2024-04-01 00:00:00
FX232 EDDK FEDEX-B77F 2024-03-29 00:00:00
FX 1040 KFLL GENERIC-B7... 2024-03-20 00:00:00
FX 341 KDEN FEDEX-MD11... 2024-03-18 00:00:00
FX 334 RJBB FEDEX-B77F 2024-03-16 00:00:00
FX 350 KATL FEDEX-B77F 2024-03-09 00:00:00
FX 561 PANC FEDEX-B77F 2024-03-03 00:00:00
FX603 RCTP FEDEX-B77F 2024-02-28 00:00:00
FX178 KMEM FEDEX-B77F 2024-02-18 00:00:00
FX 178 KMEM FEDEX-MD11... 2024-02-15 00:00:00
FX 351 KATL FEDEX-B77F 2024-02-14 00:00:00
FX1612 KJFK FEDEX-MD11... 2024-02-14 00:00:00
CONNECT 425 EDDK FEDEX-B77F 2024-02-09 00:00:00
CONNECT 425 EDDK FEDEX-B77F 2024-02-07 00:00:00
CONNECT 425 EDDK FEDEX-B77F 2024-02-06 00:00:00
CONNECT42 EDDK FEDEX-B77F 2024-02-05 00:00:00
FX996 KELP GENERIC-B7... 2024-02-04 00:00:00
CONNECT 425 EDDK FEDEX-B77F 2024-02-04 00:00:00
CONNECT 425 EDDK FEDEX-B77F 2024-02-04 00:00:00
FX342 KDEN FEDEX-MD11... 2024-02-04 00:00:00
FX990 KAFW IF-LIVERY-... 2024-02-02 00:00:00
FX 369 KJFK FEDEX-B77F 2024-01-27 00:00:00
FX 369 KJFK FEDEX-B77F 2024-01-26 00:00:00
FX397 KLAX FEDEX-B77F 2024-01-26 00:00:00
FX369 KJFK FEDEX-B77F 2024-01-22 00:00:00
FX369 KJFK FEDEX-B77F 2024-01-16 00:00:00
FX 631 RCTP FEDEX-B77F 2024-01-15 00:00:00
FX 820 KOAK B763 2024-01-10 00:00:00
FX253 CYYZ B77F 2024-01-06 00:00:00
FX 253 CYYZ B77F 2024-01-06 00:00:00
FX 809 KSAN MD11F 2024-01-04 00:00:00
FX 631 RCTP B77F 2024-01-02 00:00:00
FX 631 RCTP B77F 2024-01-02 00:00:00
FX 502 KEWR B77F 2024-01-02 00:00:00
FX 369 KJFK B77F 2024-01-01 00:00:00
FX 309 LFPG B77F 2024-01-01 00:00:00
FX 380 KPDX B77F 2023-12-30 00:00:00
FX369 KJFK B77F 2023-12-26 00:00:00
FX393 KBWI B77F 2023-12-24 00:00:00
FX1268 KGRR B77F 2023-12-23 00:00:00
FX253 CYYZ B77F 2023-12-16 00:00:00
FX 335 RJBB B77F 2023-12-17 00:00:00
FX 340 KDFW B77F 2023-12-07 00:00:00
FX 335 RJBB B77F 2023-12-04 00:00:00
FX 335 RJBB B77F 2023-11-26 00:00:00
FX 369 KJFK B77F 2023-11-24 00:00:00
FX 178 KMEM B77F 2023-11-23 00:00:00
FX 502 KEWR B77F 2023-11-15 00:00:00
FX1258 KRNO B752 2023-11-10 00:00:00
FX 253 CYYZ MD11F 2023-11-11 00:00:00
MTN 8516 KCID C208 2023-11-06 00:00:00
FX CHALLENGE #3 KGSO B77F 2023-11-05 00:00:00
FX833 EGSS B77F 2023-11-04 00:00:00
FX 1077 KFLL B752 2023-10-31 00:00:00
FXCHALLEN KTPA B77F 2023-10-30 00:00:00
FX CHALLENGE (2) KTPA B77F 2023-10-30 00:00:00
FX CHALLENGE (2) KTPA B77F 2023-10-30 00:00:00
FX CHALLENGE (2) KTPA B77F 2023-10-30 00:00:00
FX CHALLENGE (2) KTPA B77F 2023-10-30 00:00:00
FX 403 KTPA B77F 2023-10-30 00:00:00
FX 369 KJFK MD11F 2023-10-29 00:00:00
FX 990 KAFW B763 2023-10-23 00:00:00
FX 395 KORD B77F 2023-10-22 00:00:00
FX 335 RJBB B77F 2023-10-13 00:00:00
FX EVENT KMEM B77F 2023-10-09 00:00:00
FX EVENT KMEM B77F 2023-10-07 00:00:00
FX EVENT KMEM B77F 2023-10-07 00:00:00
FX EVENT KMEM B77F 2023-10-07 00:00:00
FX EVENT KMEM B77F 2023-10-07 00:00:00
FX EVENT KMEM B77F 2023-10-07 00:00:00
FX EVENT KMEM B77F 2023-10-07 00:00:00
FX EVENT KMEM B77F 2023-10-07 00:00:00
FX EVENT KMEM B77F 2023-10-07 00:00:00
FX EVENT KMEM B77F 2023-10-07 00:00:00
FX CTR KBDG B77F 2023-10-06 00:00:00
FX 397 KLAX B77F 2023-10-06 00:00:00
FX 369 KJFK B77F 2023-10-06 00:00:00
FX ATC KIND IFATC 2023-09-22 00:00:00
FX 397 KLAX B77F 2023-09-23 00:00:00
FX 391 KIAD B77F 2023-09-22 00:00:00
FX 253 CYYZ B77F 2023-09-22 00:00:00
FX 233 EDDK MD11F 2023-09-19 00:00:00
FX ROTW RJBB B77F 2023-09-16 00:00:00
FX 564 PANC B763 2023-09-15 00:00:00
FX 253 CYYZ MD11F 2023-09-05 00:00:00
FX 253 CYYZ MD11F 2023-09-05 00:00:00
FX 1038 KSLC B752 2023-09-05 00:00:00
FX 391 KIAD DC10F 2023-08-29 00:00:00
FX253 CYYZ B77F 2023-08-26 00:00:00
FX ATC KIND IFATC 2023-08-26 00:00:00
FX178 KMEM B77F 2023-08-24 00:00:00
FX 346 KCLT B77F 2023-08-20 00:00:00
FX 502 KEWR B77F 2023-08-02 00:00:00
FX 335 RJBB B77F 2023-08-01 00:00:00
FX 393 KBWI B77F 2023-07-31 00:00:00
FX 502 KEWR MD11F 2023-07-23 00:00:00

Runway Information (Airport elevation: 778ft)

Runway 05L Length 11,190ft Width 148ft Elevation 778ft Surface Asphalt Heading 44
Runway 05R Length 9,993ft Width 150ft Elevation 778ft Surface Asphalt Heading 44
Runway 14 Length 7,268ft Width 143ft Elevation 778ft Surface Asphalt Heading 135
Runway 23L Length 9,993ft Width 150ft Elevation 778ft Surface Asphalt Heading 224
Runway 23R Length 11,190ft Width 148ft Elevation 778ft Surface Asphalt Heading 224
Runway 32 Length 7,268ft Width 143ft Elevation 778ft Surface Asphalt Heading 315

Airport Frequencies

Type APP/DEP Frequency 124.650 Mhz
Type APP/DEP Frequency 127.150 Mhz
Type APP/DEP Frequency 128.175 Mhz
Type ATIS Frequency 134.250 Mhz
Type CPT Frequency 128.750 Mhz
Type D Frequency 119.050 Mhz
Type D Frequency 124.950 Mhz
Type Ground Frequency 121.800 Mhz
Type Ground Frequency 121.900 Mhz
Type Tower Frequency 120.900 Mhz
Type UC Frequency 122.950 Mhz
Type APP/DEP Frequency 124.650 Mhz
Type APP/DEP Frequency 127.150 Mhz
Type APP/DEP Frequency 128.175 Mhz
Type Clearance Frequency 128.750 Mhz
Type D Frequency 119.050 Mhz
Type D Frequency 124.650 Mhz
Type D Frequency 124.950 Mhz
Type D Frequency 127.150 Mhz
Type UC Frequency 122.950 Mhz

Airport Navaids

Type NDB Ident CO Frequency 232 Khz